Weather History for Hutchinson, MN

Change the Weather History Date:

Friday, October 18, 2013

  Actual Average Record
Temperature  
Mean Temperature 42 °F -  
Max Temperature 53 °F 56 °F 79 °F (1965)
Min Temperature 32 °F 34 °F 17 °F (1972)
Degree Days  
Heating Degree Days 22    
Moisture  
Dew Point 35 °F    
Average Humidity 75    
Maximum Humidity 97    
Minimum Humidity 40    
Precipitation  
Precipitation 0.00 in - - ()
Sea Level Pressure  
Sea Level Pressure 29.94 in    
Wind  
Wind Speed 8 mph (West)    
Max Wind Speed 18 mph    
Max Gust Speed 26 mph    
Visibility 10 miles    
Events      
Averages and records for this station are not official NWS values.
T = Trace of Precipitation, MM = Missing Value Source: NWS Daily Summary

Daily Weather History Graph

Daily Weather History Graph

Search for Another Location

Airport:

Trip Planner

Search our weather history database for the weather conditions in past years. The results will help you decide how hot, cold, wet, or windy it might be!

Date:

Astronomy

Oct. 18, 2013 Rise Set
Actual Time 7:37 AM CDT 6:27 PM CDT
Civil Twilight 7:07 AM CDT 6:56 PM CDT
Nautical Twilight 6:33 AM CDT 7:30 PM CDT
Astronomical Twilight 5:59 AM CDT 8:04 PM CDT
Moon 6:16 PM CDT (10/18) 7:13 AM CDT (10/18)
Length of Visible Light 11h 49m
Length of Day
10h 49m
Full, 100% of the Moon is Illuminated
Oct 18
Full
Oct 18
Full
Oct 26
Last Quarter
Nov 3
New
Nov 9
First Quarter

Hourly Weather History & Observations

Time (CDT) Temp. Windchill Dew Point Humidity Pressure Visibility Wind Dir Wind Speed Gust Speed Precip Events Conditions
12:05 AM 41.0 °F 33.9 °F 39.2 °F 93% 29.91 in 10.0 mi NW 12.7 mph 17.3 mph N/A   Overcast
12:25 AM 41.0 °F 35.2 °F 39.2 °F 93% 29.91 in 10.0 mi NW 9.2 mph - N/A   Overcast
12:45 AM 41.0 °F 35.2 °F 39.2 °F 93% 29.92 in 10.0 mi NW 9.2 mph - N/A   Overcast
1:05 AM 41.0 °F 35.2 °F 39.2 °F 93% 29.91 in 10.0 mi NW 9.2 mph 16.1 mph N/A   Overcast
1:25 AM 41.0 °F 35.2 °F 39.2 °F 93% 29.92 in 10.0 mi WNW 9.2 mph - N/A   Overcast
1:45 AM 41.0 °F 36.4 °F 39.2 °F 93% 29.92 in 10.0 mi NW 6.9 mph - N/A   Overcast
2:05 AM 41.0 °F 35.8 °F 39.2 °F 93% 29.92 in 10.0 mi NW 8.1 mph - N/A   Overcast
2:25 AM 41.0 °F 34.3 °F 39.2 °F 93% 29.92 in 10.0 mi NNW 11.5 mph 18.4 mph N/A   Overcast
2:45 AM 41.0 °F 33.9 °F 39.2 °F 93% 29.93 in 10.0 mi NNW 12.7 mph 18.4 mph N/A   Overcast
3:05 AM 41.0 °F 36.4 °F 39.2 °F 93% 29.94 in 10.0 mi NW 6.9 mph - N/A   Overcast
3:25 AM 41.0 °F 35.8 °F 39.2 °F 93% 29.94 in 10.0 mi NW 8.1 mph - N/A   Overcast
3:45 AM 41.0 °F 37.1 °F 37.4 °F 87% 29.93 in 10.0 mi NW 5.8 mph - N/A   Overcast
3:57 AM 40.3 °F 37.1 °F 38.3 °F 93% 29.93 in 10.0 mi WNW 4.6 mph - N/A   Overcast
4:13 AM 39.7 °F 35.6 °F 38.3 °F 95% 29.94 in 10.0 mi WNW 5.8 mph - N/A   Overcast
4:33 AM 39.2 °F 35.0 °F 37.9 °F 95% 29.94 in 10.0 mi West 5.8 mph - N/A   Overcast
4:53 AM 39.2 °F 34.2 °F 38.3 °F 97% 29.94 in 10.0 mi WNW 6.9 mph - N/A   Overcast
5:14 AM 39.0 °F 34.8 °F 37.8 °F 95% 29.94 in 10.0 mi WNW 5.8 mph - N/A   Overcast
5:34 AM 38.8 °F 34.6 °F 37.4 °F 95% 29.95 in 10.0 mi West 5.8 mph - N/A   Overcast
5:54 AM 38.5 °F 33.4 °F 36.7 °F 93% 29.96 in 10.0 mi West 6.9 mph - N/A   Mostly Cloudy
6:13 AM 37.9 °F 32.7 °F 36.1 °F 93% 29.97 in 10.0 mi West 6.9 mph - N/A   Mostly Cloudy
6:33 AM 36.9 °F 31.4 °F 35.1 °F 93% 29.97 in 10.0 mi West 6.9 mph - N/A   Overcast
6:54 AM 35.6 °F 30.7 °F 33.8 °F 93% 29.97 in 10.0 mi WNW 5.8 mph - N/A   Mostly Cloudy
7:13 AM 34.9 °F 29.9 °F 33.3 °F 94% 29.98 in 10.0 mi West 5.8 mph - N/A   Scattered Clouds
7:33 AM 34.2 °F 30.0 °F 32.5 °F 94% 29.99 in 10.0 mi West 4.6 mph - N/A   Clear
7:52 AM 32.9 °F 28.5 °F 32.0 °F 96% 29.99 in 10.0 mi West 4.6 mph - N/A   Clear
8:13 AM 33.6 °F 27.5 °F 32.5 °F 96% 29.99 in 10.0 mi West 6.9 mph - N/A   Clear
8:34 AM 34.7 °F 28.1 °F 32.9 °F 93% 30.00 in 10.0 mi West 8.1 mph - N/A   Clear
8:53 AM 35.6 °F 29.9 °F 33.4 °F 92% 30.00 in 10.0 mi West 6.9 mph - N/A   Clear
9:14 AM 36.9 °F 31.4 °F 34.3 °F 91% 30.01 in 10.0 mi West 6.9 mph - N/A   Clear
9:34 AM 38.1 °F 32.3 °F 34.9 °F 88% 30.01 in 10.0 mi West 8.1 mph - N/A   Clear
9:54 AM 39.2 °F 34.2 °F 35.2 °F 86% 30.00 in 10.0 mi West 6.9 mph - N/A   Clear
10:13 AM 41.0 °F 37.1 °F 36.3 °F 83% 30.01 in 10.0 mi West 5.8 mph - N/A   Clear
10:33 AM 42.3 °F 37.9 °F 36.3 °F 79% 30.01 in 10.0 mi West 6.9 mph - N/A   Clear
10:54 AM 43.5 °F 38.9 °F 36.7 °F 77% 30.01 in 10.0 mi West 8.1 mph - N/A   Clear
11:14 AM 45.3 °F 41.6 °F 36.7 °F 72% 30.00 in 10.0 mi West 6.9 mph - N/A   Clear
11:33 AM 46.4 °F 42.9 °F 36.9 °F 69% 30.00 in 10.0 mi West 6.9 mph - N/A   Clear
11:54 AM 47.5 °F - 35.4 °F 63% 30.00 in 10.0 mi West 8.1 mph - N/A   Clear
12:13 PM 48.6 °F - 33.3 °F 56% 30.00 in 10.0 mi West 9.2 mph - N/A   Clear
12:34 PM 49.6 °F - 32.5 °F 52% 29.99 in 10.0 mi West 9.2 mph - N/A   Clear
12:54 PM 50.4 °F - 34.0 °F 53% 29.99 in 10.0 mi WSW 9.2 mph - N/A   Clear
1:13 PM 51.1 °F - 33.6 °F 51% 29.98 in 10.0 mi West 11.5 mph - N/A   Clear
1:33 PM 51.3 °F - 33.3 °F 50% 29.97 in 10.0 mi West 11.5 mph 17.3 mph N/A   Scattered Clouds
1:53 PM 50.5 °F - 32.7 °F 51% 29.95 in 10.0 mi West 12.7 mph 17.3 mph N/A   Scattered Clouds
2:13 PM 50.2 °F - 30.6 °F 47% 29.94 in 10.0 mi West 10.4 mph 18.4 mph N/A   Scattered Clouds
2:33 PM 52.0 °F - 30.9 °F 45% 29.93 in 10.0 mi West 11.5 mph - N/A   Clear
2:54 PM 53.1 °F - 30.9 °F 43% 29.93 in 10.0 mi West 11.5 mph 16.1 mph N/A   Mostly Cloudy
3:13 PM 52.5 °F - 30.9 °F 44% 29.94 in 10.0 mi West 10.4 mph 16.1 mph N/A   Mostly Cloudy
3:33 PM 52.2 °F - 30.4 °F 43% 29.94 in 10.0 mi West 12.7 mph - N/A   Mostly Cloudy
3:53 PM 52.3 °F - 30.2 °F 43% 29.94 in 10.0 mi WSW 11.5 mph - N/A   Scattered Clouds
4:13 PM 52.3 °F - 28.4 °F 40% 29.93 in 10.0 mi West 9.2 mph - N/A   Scattered Clouds
4:34 PM 52.3 °F - 29.7 °F 42% 29.92 in 10.0 mi WSW 5.8 mph - N/A   Mostly Cloudy
4:53 PM 50.7 °F - 29.3 °F 44% 29.92 in 10.0 mi WSW 6.9 mph - N/A   Overcast
5:14 PM 50.4 °F - 29.7 °F 45% 29.91 in 10.0 mi West 8.1 mph - N/A   Mostly Cloudy
5:33 PM 49.8 °F - 31.3 °F 49% 29.91 in 10.0 mi WSW 6.9 mph - N/A   Overcast
5:53 PM 49.1 °F - 31.5 °F 51% 29.91 in 10.0 mi SW 3.5 mph - N/A   Overcast
6:14 PM 47.8 °F - 31.1 °F 52% 29.91 in 10.0 mi Calm Calm - N/A   Mostly Cloudy
6:33 PM 46.4 °F 45.2 °F 30.9 °F 55% 29.90 in 10.0 mi SSW 3.5 mph - N/A   Scattered Clouds
6:54 PM 45.1 °F 43.7 °F 29.8 °F 55% 29.90 in 10.0 mi WSW 3.5 mph - N/A   Scattered Clouds
7:13 PM 43.2 °F 40.5 °F 31.1 °F 62% 29.90 in 10.0 mi WSW 4.6 mph - N/A   Scattered Clouds
7:33 PM 45.9 °F 41.7 °F 31.8 °F 58% 29.90 in 10.0 mi WSW 8.1 mph - N/A   Mostly Cloudy
7:54 PM 46.2 °F 44.1 °F 31.8 °F 57% 29.90 in 10.0 mi WSW 4.6 mph - N/A   Mostly Cloudy
8:13 PM 44.4 °F 41.2 °F 32.0 °F 62% 29.90 in 10.0 mi WSW 5.8 mph - N/A   Mostly Cloudy
8:33 PM 42.8 °F 41.1 °F 32.4 °F 67% 29.89 in 10.0 mi WSW 3.5 mph - N/A   Scattered Clouds
8:53 PM 39.7 °F 36.5 °F 32.2 °F 74% 29.89 in 10.0 mi WSW 4.6 mph - N/A   Clear
9:14 PM 41.9 °F 33.4 °F 35.6 °F 78% 29.90 in 10.0 mi West 18.4 mph 23.0 mph N/A   Mostly Cloudy
9:33 PM 41.2 °F 33.0 °F 37.4 °F 86% 29.90 in 10.0 mi West 16.1 mph 26.5 mph N/A   Overcast
9:53 PM 41.5 °F 35.9 °F 36.5 °F 82% 29.89 in 10.0 mi West 9.2 mph 23.0 mph N/A   Light Drizzle
10:14 PM 41.0 °F 36.4 °F 36.5 °F 84% 29.89 in 10.0 mi West 6.9 mph - N/A   Overcast
10:33 PM 40.3 °F 38.2 °F 36.9 °F 88% 29.88 in 10.0 mi West 3.5 mph - N/A   Overcast
10:53 PM 39.2 °F 35.9 °F 36.1 °F 89% 29.87 in 10.0 mi WSW 4.6 mph - N/A   Mostly Cloudy
11:14 PM 38.7 °F 35.2 °F 36.5 °F 92% 29.87 in 10.0 mi WSW 4.6 mph - N/A   Mostly Cloudy
11:33 PM 38.8 °F 35.4 °F 36.5 °F 91% 29.86 in 10.0 mi SW 4.6 mph - N/A   Overcast
11:53 PM 38.7 °F 34.3 °F 36.5 °F 92% 29.86 in 10.0 mi WSW 5.8 mph - N/A   Scattered Clouds